Location: Downe
(51.3167°N, 0.0500°E)
Time: 11:17:58
(UTC+00:00)

Meteor 2-20 - Pass Details

Date: 17 November 2019
Orbit: 940 x 958 km, 82.5° (Epoch: 12 December)

Event Time Altitude Azimuth Distance (km) Brightness Sun altitude
Rises 04:47:40 0° 347° (NNW) 3,653 7.4 -23.5°
Reaches altitude 10° 04:50:12 10° 344° (NNW) 2,703 6.6 -23.1°
Maximum altitude 04:56:17 62° 266° (W) 1,071 4.4 -22.1°
Drops below altitude 10° 05:02:19 10° 187° (S) 2,680 6.8 -21.2°
Sets 05:04:49 0° 184° (S) 3,619 7.5 -20.8°
